www.pogodaiklimat.ru

Погода и климат >> Архив погоды >> Австралия >> Квинсленд >> Беркетаун


ПОГОДА в Беркетауне

  • Прогноз погоды в Беркетауне
  • Монитор погоды в Беркетауне

АРХИВ ПОГОДЫ в Беркетауне

Время (UTC), дата Ветер
(напр.,м/с)
 
Видим.   Явления Облачность Т
(С)
Тd
(С)
f
(%)
Тe
(С)
Тes
(С)
Комфортность P
(гПа)
Po
(гПа)
Тmin
(С)
Tmax
(С)
R
(мм)
R24
(мм)
S
(см)
08 11.02 С 6 н/о н/о +34.1 +19.7 43 +40 +40 очень
душно
1005.1 1004.4
11 11.02 С 5 н/о н/о +29.4 +26.6 85 +45 +45 опасность
перегрева
1007.8 1007.1
14 11.02 С 3 н/о н/о +28.1 +27.6 97 +45 +45 опасность
перегрева
1007.5 1006.8 +37.8
17 11.02 штиль 0 н/о н/о +26.6 +25.9 96 +40 +40 очень
душно
1007.2 1006.5
20 11.02 С 3 н/о н/о +24.6 +23.7 95 +33 +33 очень
душно
1008.1 1007.4
23 11.02 С 6 н/о н/о +31.0 +25.6 73 +46 +46 опасность
перегрева
1009.5 1008.8
02 12.02 С 6 н/о н/о +35.3 +24.9 55 +49 +49 опасность
перегрева
1008.5 1007.8 +24.6
05 12.02 С 7 н/о н/о +36.5 +23.4 47 +47 +47 опасность
перегрева
1005.4 1004.7
08 12.02 С 7 н/о н/о +34.2 +24.2 56 +46 +46 опасность
перегрева
1004.1 1003.4
11 12.02 С 5 н/о н/о +29.6 +26.4 83 +45 +45 опасность
перегрева
1006.6 1005.9
14 12.02 С 4 н/о н/о +28.4 +26.6 90 +44 +44 опасность
перегрева
1007.5 1006.8 +38.2
17 12.02 С 2 н/о н/о +27.1 +26.0 94 +41 +41 опасность
перегрева
1006.7 1006.0
20 12.02 С 3 н/о н/о +26.9 +26.6 98 +41 +41 опасность
перегрева
1007.7 1007.0
23 12.02 СЗ 6 н/о н/о +31.2 +25.8 73 +46 +46 опасность
перегрева
1008.7 1008.0
02 13.02 СЗ 5 н/о н/о +36.4 +23.3 47 +47 +47 опасность
перегрева
1008.3 1007.6 +26.4
05 13.02 СЗ 4 н/о 6/0
[]
+39.0 +19.3 32 +44 +52 опасность
перегрева
1005.7 1005.0
08 13.02 СВ 6 н/о н/о +34.8 +24.4 55 +47 +47 опасность
перегрева
1005.1 1004.4
11 13.02 С 5 н/о н/о +30.3 +25.8 77 +45 +45 опасность
перегрева
1006.9 1006.2
14 13.02 С 4 н/о 9/0
[]
+29.3 +26.3 84 +45 +45 опасность
перегрева
1007.6 1006.9 +39.9
17 13.02 С 4 н/о 6/6 300 м
[]
+28.4 +27.5 95 +46 +46 опасность
перегрева
1006.9 1006.2
20 13.02 С 4 н/о 6/0
[]
+28.0 +27.7 98 +45 +45 опасность
перегрева
1007.9 1007.2
23 13.02 ЮЗ 2 н/о 9/9 300 м
[]
+31.1 +27.7 82 +50 +51 опасность
перегрева
1010.4 1009.7
02 14.02 В 3 н/о 1/1 1000 м
[]
+34.8 +25.0 57 +48 +66 опасность
перегрева
1009.0 1008.3 +27.7
05 14.02 В 4 н/о 3/0
[]
+36.5 +24.4 50 +49 +58 опасность
перегрева
1006.5 1005.8
08 14.02 В 9 н/о сильн. ливневой дождь {туман} 10/10 1500 м
[]
+26.3 +22.4 79 +34 +34 очень
душно
1008.1 1007.4
11 14.02 СЗ 1 н/о {туман} н/о +26.4 +25.2 93 +38 +38 очень
душно
1009.9 1009.2
14 14.02 ЮВ 2 н/о н/о +26.3 +25.4 95 +38 +38 очень
душно
1010.4 1009.7 +38.3
17 14.02 ЮЗ 3 1500 м н/о +24.6 +24.6 100 +34 +34 очень
душно
1009.4 1008.7
20 14.02 Ю 4 н/о в посл. час дождь {туман} н/о +24.2 +23.3 95 +32 +32 очень
душно
1010.8 1010.1
23 14.02 ЮВ 5 н/о {туман} н/о +29.8 +19.2 53 +35 +35 очень
душно
1012.2 1011.5
02 15.02 Ю 4 н/о 1/0
[]
+33.9 +15.8 34 +36 +50 душно 1011.7 1011.0 +24.1
05 15.02 В 4 н/о н/о +36.6 +15.7 29 +38 +38 очень
душно
1009.1 1008.4
08 15.02 ЮВ 3 н/о н/о +36.3 +14.9 28 +38 +38 очень
душно
1008.0 1007.3
11 15.02 С 3 н/о н/о +28.9 +22.4 68 +38 +38 очень
душно
1010.6 1009.9
14 15.02 С 1 н/о н/о +26.4 +23.9 86 +36 +36 очень
душно
1011.1 1010.4 +37.3
17 15.02 З 3 300 м н/о +24.4 +23.5 95 +33 +33 очень
душно
1010.3 1009.6
20 15.02 штиль 0 н/о н/о +24.4 +23.5 95 +33 +33 очень
душно
1010.8 1010.1
23 15.02 СВ 5 н/о н/о +29.5 +24.6 75 +42 +42 опасность
перегрева
1012.4 1011.7
02 16.02 С 4 н/о н/о +35.4 +21.6 45 +43 +43 опасность
перегрева
1011.1 1010.4 +24.0
05 16.02 СВ 5 н/о н/о +36.9 +20.2 38 +43 +43 опасность
перегрева
1007.9 1007.2
08 16.02 С 5 н/о 4/0
[]
+31.2 +19.9 51 +37 +38 очень
душно
1007.8 1007.1
11 16.02 С 3 н/о н/о +28.6 +25.0 81 +41 +41 опасность
перегрева
1009.5 1008.8
14 16.02 З 3 н/о н/о +26.6 +25.4 93 +39 +39 очень
душно
1010.5 1009.8 +37.7
17 16.02 В 2 н/о н/о +25.5 +25.0 97 +36 +36 очень
душно
1009.0 1008.3
20 16.02 З 2 н/о 1/1 600 м
[]
+24.4 +24.4 100 +34 +34 очень
душно
1009.8 1009.1
23 16.02 СЗ 5 н/о н/о +30.6 +25.9 76 +46 +46 опасность
перегрева
1011.4 1010.7
02 17.02 С 4 н/о 1/1 1000 м
[]
+34.9 +23.6 52 +46 +58 опасность
перегрева
1010.3 1009.6 +24.4
05 17.02 С 7 н/о н/о +35.3 +23.6 51 +46 +46 опасность
перегрева
1006.9 1006.2
08 17.02 С 7 н/о н/о +33.1 +22.5 54 +43 +43 опасность
перегрева
1006.0 1005.3
11 17.02 С 4 н/о н/о +29.6 +24.5 74 +42 +42 опасность
перегрева
1008.1 1007.4
14 17.02 С 4 н/о н/о +28.0 +25.2 85 +41 +41 опасность
перегрева
1009.0 1008.3 +36.5
17 17.02 СЗ 3 н/о н/о +26.2 +25.3 95 +38 +38 очень
душно
1008.0 1007.3
20 17.02 С 2 н/о н/о +25.4 +25.2 99 +37 +37 очень
душно
1008.6 1007.9
23 17.02 СЗ 5 н/о н/о +30.7 +26.0 76 +46 +46 опасность
перегрева
1010.6 1009.9
02 18.02 С 5 н/о н/о +35.4 +24.0 52 +47 +47 опасность
перегрева
1009.6 1008.9 +25.2
05 18.02 С 6 н/о н/о +35.6 +24.8 54 +49 +49 опасность
перегрева
1006.6 1005.9
08 18.02 С 7 н/о н/о +33.0 +25.5 65 +48 +48 опасность
перегрева
1006.3 1005.6

 

Местоположение метеостанции Беркетаун (Квинсленд, Австралия): широта -17.75 долгота 139.53 высота над уровнем моря 6 м.

В архиве по умолчанию представлена погода в Беркетауне за последнюю неделю. Архивные данные за месяц целиком и за предыдущие месяцы, начиная с января 2011 года, Вы можете получить, выбрав интересующий диапазон дат из раскрывающегося списка и нажав кнопку "Ввод!".


*Определитесь, кто Вы:
робот инопланетянин человек

Внимание! Время в таблицах - всемирное. Для получения местного времени необходимо прибавить поправку, которая равна 10 ч.

Смотрите также архив погоды в соседних городах и на ближайших метеорологических станциях:

Погода на Острове Морнингтон (Квинсленд, Австралия) (127 км)
Погода на Руднике Century Mine (Квинсленд, Австралия) (142 км)
Погода в Нормантоне (Квинсленд, Австралия) (163 км)
Погода на Озере Джулиус (Квинсленд, Австралия) (264 км)
Погода в Камоауиле (Квинсленд, Австралия) (283 км)
Погода в Нью Мэй Даун (Квинсленд, Австралия) (317 км)
Погода на Маунт-Айза (Квинсленд, Австралия) (326 км)
Погода в Клонкарри (Квинсленд, Австралия) (340 км)
Погода в Кованьяме (Квинсленд, Австралия) (346 км)
Погода на Острове Центр (Северная территория, Австралия) (366 км)

Пояснения к столбцам:

Ветер - указаны скорость ветра в м/с - средняя за 10 мин, порывы в срок и между сроками (в фигурных скобках) и направление, откуда дует ветер: С - северный, СВ - северо-восточный, В - восточный, ЮВ - юго-восточный, Ю - южный, ЮЗ - юго-западный, З - западный, СЗ - северо-западный.
Видимость - горизонтальная дальность видимости в метрах или километрах. При видимости от 1 до 10 км при отсутствии осадков обычно наблюдается дымка, при ухудшении видимости до 1 км и менее - туман. В сухую погоду видимость может ухудшаться дымом, пылью или мглою.
Явления - указаны атмосферные явления, наблюдавшиеся в срок или в последний час перед сроком; фигурными скобками обозначены явления, наблюдавшиеся между сроками (за 1-3 часа до срока); квадратными скобками обозначены град или гололедные отложения с указанием их диаметра в мм.
Облачность - указаны через наклонную черту общая и нижняя облачность в баллах и высота нижней границы облаков в метрах; квадратными скобками обозначены формы облаков: Ci - перистые, Cs - перисто-слоистые, Cc - перисто-кучевые, Ac - высококучевые, As - высокослоистые, Sc - слоисто-кучевые, Ns - слоисто-дождевые, Cu - кучевые, Cb - кучево-дождевые. Подробнее классификацию облаков см. в Атласе облаков (PDF).
T - Температура воздуха - температура, измеренная на высоте 2 м над землей.
Td - Температура точки росы - температура, при понижении до которой содержащийся в воздухе водяной пар достигнет насыщения.
f - Относительная влажность воздуха - влажноcть воздуха, измеренная на высоте 2 м над землей.
Te - Эффективная температура - температура, которую ощущает одетый по сезону человек в тени. Характеристика душности погоды. При расчете учитывается влияние влажности воздуха и скорости ветра на теплоощущения человека.
Tes - Эффективная температура на солнце - температура, которую ощущает человек, с поправкой на солнечный нагрев. Характеристика знойности погоды. Зависит от высоты солнца над горизонтом, облачности и скорости ветра. Ночью, в пасмурную погоду, а также при ветре 12 м/с и более поправка равна нулю.
P - Атмосферное давление - приведенное к уровню моря атмосферное давление.
Po - Атмосферное давление - измеренное на уровне метеостанции атмосферное давление.
Tmin - Минимальная температура - минимум температуры воздуха на высоте 2 м над землей.
Tmax - Максимальная температура - максимум температуры воздуха на высоте 2 м над землей.
R - Количество осадков - Количество выпавших осадков за период времени, мм. При наведении курсора мыши на число - период времени, за который выпало указанное количество осадков.
R24 - Количество осадков - Количество выпавших осадков за 24 часа, мм.
S - Снежный покров - Высота снежного покрова, см. При наведении курсора мыши на число - состояние снежного покрова и степень покрытия местности в баллах.